Wenatchee, WA

9:19 AM PDT on October 23, 2017 (GMT -0700)
Pangborn Memorial

Weather History for KEAT - April, 2014

Change the Weather History Date:

Thursday, April 17, 2014

  Actual Average Record
Temperature  
Mean Temperature 47 °F 52 °F  
Max Temperature 50 °F 63 °F 85 °F (1994)
Min Temperature 43 °F 41 °F 31 °F (1964)
Degree Days  
Heating Degree Days 18 13  
Month to date heating degree days 333 250  
Since 1 July heating degree days 6475 5362  
Cooling Degree Days 0 0  
Month to date cooling degree days 0 0  
Year to date cooling degree days 0 2  
Growing Degree Days 4 (Base 50)    
Moisture  
Dew Point 40 °F    
Average Humidity 62    
Maximum Humidity 80    
Minimum Humidity 47    
Precipitation  
Precipitation 0.37 in 0.01 in 0.35 in (1988)
Month to date precipitation 0.62 0.27  
Year to date precipitation 5.84 2.78  
Snow  
Snow 0.00 in - - ()
Month to date snowfall T  
Snow Depth 0.00 in    
Sea Level Pressure  
Sea Level Pressure 29.78 in    
Wind  
Wind Speed 7 mph (NNE)    
Max Wind Speed 21 mph    
Max Gust Speed 25 mph    
Visibility 10 miles    
Events Rain    
T = Trace of Precipitation, MM = Missing Value Source: NWS Daily Summary

Daily Weather History Graph

Daily Weather History Graph

Search for Another Location

Airport or City:

Trip Planner

Search our weather history database for the weather conditions in past years. The results will help you decide how hot, cold, wet, or windy it might be!

Date:

Astronomy

Apr. 17, 2014 Rise Set
Actual Time 6:08 AM PDT 7:53 PM PDT
Civil Twilight 5:36 AM PDT 8:25 PM PDT
Nautical Twilight 4:56 AM PDT 9:05 PM PDT
Astronomical Twilight 4:13 AM PDT 9:49 PM PDT
Moon 10:52 PM PDT (4/17) 7:36 AM PDT (4/17)
Length of Visible Light 14h 49m
Length of Day
13h 44m
Waning Gibbous, 93% of the Moon is Illuminated
Apr 17
Waning Gibbous
Apr 22
Last Quarter
Apr 28
New
May 6
First Quarter
May 14
Full

Hourly Weather History & Observations

Time (PDT) Temp. Dew Point Humidity Pressure Visibility Wind Dir Wind Speed Gust Speed Precip Events Conditions
12:55 AM 52.0 °F 36.0 °F 54% 29.90 in 10.0 mi WNW 10.4 mph - N/A   Overcast
1:55 AM 51.1 °F 36.0 °F 56% 29.88 in 10.0 mi NW 8.1 mph - N/A   Overcast
2:55 AM 51.1 °F 36.0 °F 56% 29.86 in 10.0 mi NNW 6.9 mph - N/A   Overcast
3:55 AM 50.0 °F 36.0 °F 59% 29.85 in 10.0 mi North 5.8 mph - N/A   Partly Cloudy
4:55 AM 50.0 °F 36.0 °F 59% 29.84 in 10.0 mi NNW 4.6 mph - N/A   Scattered Clouds
5:55 AM 48.9 °F 37.0 °F 64% 29.83 in 10.0 mi NNW 6.9 mph - N/A   Partly Cloudy
6:55 AM 48.0 °F 37.0 °F 66% 29.82 in 10.0 mi North - - N/A   Clear
7:55 AM 48.9 °F 37.9 °F 66% 29.83 in 10.0 mi WNW 5.8 mph - N/A   Clear
9:55 AM 51.1 °F 37.9 °F 61% 29.82 in 10.0 mi Calm Calm - N/A   Scattered Clouds
10:55 AM 54.0 °F 37.0 °F 53% 29.81 in 10.0 mi NNW 3.5 mph - N/A   Overcast
11:55 AM 54.0 °F 37.9 °F 55% 29.79 in 10.0 mi Calm Calm - N/A   Mostly Cloudy
12:55 PM 57.0 °F 37.0 °F 47% 29.77 in 10.0 mi ESE 6.9 mph - N/A   Overcast
1:55 PM 57.9 °F 39.9 °F 51% 29.76 in 10.0 mi ESE 10.4 mph - N/A   Overcast
2:55 PM 59.0 °F 39.0 °F 48% 29.74 in 10.0 mi ESE 12.7 mph - N/A   Scattered Clouds
3:55 PM 59.0 °F 43.0 °F 55% 29.73 in 10.0 mi SE 12.7 mph - N/A   Overcast
4:55 PM 55.9 °F 44.1 °F 64% 29.73 in 10.0 mi East 10.4 mph - 0.00 in Rain Light Rain
5:55 PM 55.9 °F 46.9 °F 72% 29.72 in 10.0 mi ESE 6.9 mph - 0.04 in   Mostly Cloudy
6:55 PM 55.0 °F 48.0 °F 77% 29.70 in 10.0 mi East 6.9 mph - N/A   Overcast
7:55 PM 54.0 °F 48.0 °F 80% 29.71 in 10.0 mi East 4.6 mph - 0.01 in Rain Light Rain
8:55 PM 53.1 °F 46.9 °F 80% 29.71 in 10.0 mi Calm Calm - 0.01 in   Overcast
9:55 PM 52.0 °F 44.1 °F 74% 29.70 in 10.0 mi Calm Calm - N/A   Clear
10:55 PM 50.0 °F 39.9 °F 68% 29.70 in 10.0 mi NW 10.4 mph - N/A   Partly Cloudy
11:55 PM 52.0 °F 34.0 °F 50% 29.71 in 10.0 mi WNW 20.7 mph 25.3 mph N/A   Partly Cloudy